This is the latest recevied weather packets stored in our database for station/object KB3FKJ. If no packets are shown the sender has not sent any weather packets the latest 1 day(s).
| Time | Temp. | Humidity | Pressure | Rain* | Wind** | Luminosity | Snow |
|---|---|---|---|---|---|---|---|
| 1777988636 | 20.56° C | 55% | 1008.1 hPa | 0 mm | 1.79 m/s, 180° | 169 W/m² | - |
| 1777988333 | 20.56° C | 56% | 1008.3 hPa | 0 mm | 1.79 m/s, 184° | 120 W/m² | - |
| 1777988030 | 20.56° C | 57% | 1008.2 hPa | 0 mm | 1.79 m/s, 124° | 146 W/m² | - |
| 1777987725 | 20.56° C | 56% | 1008.4 hPa | 0 mm | 1.79 m/s, 229° | 345 W/m² | - |
| 1777987423 | 20° C | 57% | 1008.1 hPa | 0 mm | 1.34 m/s, 107° | 331 W/m² | - |
| 1777987120 | 20° C | 57% | 1008.3 hPa | 0 mm | 1.79 m/s, 185° | 308 W/m² | - |
| 1777986817 | 20° C | 57% | 1008.2 hPa | 0 mm | 1.79 m/s, 209° | 296 W/m² | - |
| 1777986515 | 20° C | 59% | 1008.4 hPa | 0 mm | 0.45 m/s, 170° | 66 W/m² | - |
| 1777986213 | 20° C | 59% | 1008.4 hPa | 0 mm | 0.89 m/s, 127° | 267 W/m² | - |
| 1777985910 | 19.44° C | 59% | 1008.4 hPa | 0 mm | 1.79 m/s, 214° | 260 W/m² | - |
| 1777985607 | 19.44° C | 62% | 1008.4 hPa | 0 mm | 1.34 m/s, 151° | 239 W/m² | - |
| 1777985303 | 18.89° C | 61% | 1008.5 hPa | 0 mm | 0.89 m/s, 329° | 224 W/m² | - |
| 1777984994 | 18.89° C | 64% | 1008.5 hPa | 0 mm | 1.79 m/s, 272° | 208 W/m² | - |
| 1777984685 | 18.33° C | 65% | 1008.5 hPa | 0 mm | 0.89 m/s, 167° | 56 W/m² | - |
| 1777984381 | 18.33° C | 68% | 1008.7 hPa | 0 mm | 0.89 m/s, 261° | 84 W/m² | - |
| 1777984077 | 17.78° C | 68% | 1008.6 hPa | 0 mm | 0.89 m/s, 150° | 73 W/m² | - |
| 1777983775 | 17.78° C | 69% | 1008.6 hPa | 0 mm | 0.89 m/s, 168° | 53 W/m² | - |
| 1777983471 | 17.78° C | 68% | 1008.6 hPa | 0 mm | 0.89 m/s, 111° | 48 W/m² | - |
| 1777983168 | 17.22° C | 68% | 1008.6 hPa | 0 mm | 0.89 m/s, 284° | 52 W/m² | - |
| 1777982865 | 17.22° C | 67% | 1008.6 hPa | 0 mm | 1.34 m/s, 228° | 44 W/m² | - |
| 1777982561 | 17.22° C | 67% | 1008.9 hPa | 0 mm | 0.89 m/s, 228° | 80 W/m² | - |
| 1777982259 | 16.67° C | 67% | 1008.8 hPa | 0 mm | 2.68 m/s, 254° | 77 W/m² | - |
| 1777981957 | 16.67° C | 68% | 1008.8 hPa | 0 mm | 2.68 m/s, 250° | 57 W/m² | - |
| 1777981654 | 16.67° C | 70% | 1009 hPa | 0 mm | 1.34 m/s, 235° | 49 W/m² | - |
| 1777981359 | 16.11° C | 72% | 1008.7 hPa | 0 mm | 0.89 m/s, 155° | 49 W/m² | - |
* Rain latest hour (hover to see other rain measurements)
** Current wind speed in m/s (hover to see current wind gust speed)